Location: Morris County Observatory
(40.8287°N, 74.5644°W)
Time: 09:17:50
(UTC-05:00)

Envisat - Visible Passes

Search period start: 27 November 2020 00:00
Search period end: 07 December 2020 00:00
Orbit: 764 x 766 km, 98.1° (Epoch: 27 November)

Date Brightness Start Highest point End Pass type
(mag) Time Alt. Az. Time Alt. Az. Time Alt. Az.
27 Nov 6.2 04:33:41 10° ENE 04:36:06 13° E 04:38:30 10° ESE visible
27 Nov 3.0 06:10:32 10° N 06:15:36 69° WNW 06:20:38 10° SSW visible
27 Nov 3.9 17:24:49 10° S 17:29:45 54° W 17:34:45 10° NNW visible
28 Nov 3.9 05:33:48 10° NNE 05:38:47 53° E 05:43:44 10° S visible
28 Nov 6.1 18:29:57 10° WSW 18:32:27 14° W 18:34:57 10° WNW visible
29 Nov 5.4 04:57:42 10° NE 05:01:47 24° E 05:05:49 10° SSE visible
29 Nov 5.0 17:50:51 10° SSW 17:55:18 31° W 17:59:47 10° NW visible
30 Nov 6.4 04:24:25 10° E 04:24:34 10° E 04:24:43 10° E visible
30 Nov 3.0 05:59:07 10° NNE 06:04:14 87° WNW 06:09:19 10° SSW visible
30 Nov 3.4 17:13:18 10° S 17:18:21 69° WSW 17:23:26 10° NNW visible
01 Dec 4.3 05:22:33 10° NNE 05:27:22 41° E 05:32:08 10° SSE visible
01 Dec 5.9 18:17:36 10° SW 18:20:56 18° W 18:24:17 10° NW visible
02 Dec 5.7 04:46:45 10° NE 04:50:18 19° E 04:53:49 10° SE visible
02 Dec 3.2 06:24:40 10° N 06:29:34 50° WNW 06:34:27 10° SW visible
02 Dec 4.6 17:39:08 10° SSW 17:43:51 39° W 17:48:36 10° NNW visible
03 Dec 3.2 05:47:45 10° NNE 05:52:50 74° ESE 05:57:54 10° S visible
03 Dec 3.1 17:01:53 10° SSE 17:06:58 88° WSW 17:12:04 10° NNW visible
04 Dec 4.8 05:11:21 10° NNE 05:15:55 33° E 05:20:27 10° SSE visible
04 Dec 5.6 18:05:32 10° SW 18:09:26 22° W 18:13:23 10° NW visible
05 Dec 6.0 04:36:00 10° ENE 04:38:47 15° E 04:41:34 10° SE visible
05 Dec 3.0 06:13:11 10° N 06:18:14 63° WNW 06:23:14 10° SSW visible
05 Dec 4.1 17:27:31 10° S 17:32:25 49° W 17:37:21 10° NNW visible
06 Dec 3.7 05:36:25 10° NNE 05:41:26 58° E 05:46:25 10° S visible
06 Dec 6.2 18:33:04 10° WSW 18:35:08 12° W 18:37:13 10° WNW visible
